Location: Chabot Space and Science Center
(37.8191°N, 122.1819°W)
Time: 13:09:08
(UTC-08:00)

Hubble Space Telescope - Pass Details

Date: 15 December 2021
Orbit: 535 x 538 km, 28.5° (Epoch: 22 January)

Event Time Altitude Azimuth Distance (km) Brightness Sun altitude
Rises 18:20:43 0° 220° (SW) 2,667 5.3 -17.1°
Reaches altitude 10° 18:24:00 10° 192° (SSW) 1,778 3.8 -17.8°
Maximum altitude 18:25:59 13° 163° (SSE) 1,582 3.1 -18.1°
Enters shadow 18:27:16 12° 144° (SE) 1,668 3.1 -18.4°
